Weather History for KDLZ - September, 2013

Change the Weather History Date:

Saturday, September 21, 2013

  Actual Average (KCMH) Record (KCMH)
Temperature  
Mean Temperature 61 °F 65 °F  
Max Temperature 71 °F 75 °F 96 °F (1895)
Min Temperature 51 °F 54 °F 31 °F (1962)
Degree Days  
Heating Degree Days 4 3  
Month to date heating degree days 29  
Since 1 July heating degree days 29  
Cooling Degree Days 0 3  
Month to date cooling degree days 103  
Year to date cooling degree days 992  
Growing Degree Days 11 (Base 50)    
Moisture  
Dew Point 55 °F    
Average Humidity 79    
Maximum Humidity 100    
Minimum Humidity 43    
Precipitation  
Precipitation 0.25 in 0.10 in 1.52 in (2013)
Month to date precipitation 2.03  
Year to date precipitation 29.72  
Snow  
Snow 0.00 in 0.00 in - ()
Month to date snowfall 0.0  
Since 1 July snowfall 0.0  
Since 1 September snowfall 0.0  
Snow Depth -    
Sea Level Pressure  
Sea Level Pressure 29.77 in    
Wind  
Wind Speed 5 mph (NW)    
Max Wind Speed 12 mph    
Max Gust Speed 20 mph    
Visibility 8 miles    
Events Rain    
T = Trace of Precipitation, MM = Missing Value Source: NWS Daily Summary

Daily Weather History Graph

Daily Weather History Graph

Search for Another Location

Airport or City:

Trip Planner

Search our weather history database for the weather conditions in past years. The results will help you decide how hot, cold, wet, or windy it might be!

Date:

Astronomy

Sep. 21, 2013 Rise Set
Actual Time 7:19 AM EDT 7:30 PM EDT
Civil Twilight 6:52 AM EDT 7:57 PM EDT
Nautical Twilight 6:20 AM EDT 8:29 PM EDT
Astronomical Twilight 5:47 AM EDT 9:02 PM EDT
Moon 8:40 PM EDT (9/21) 9:37 AM EDT (9/21)
Length of Visible Light 13h 05m
Length of Day
12h 11m
Waning Gibbous, 94% of the Moon is Illuminated
Sep 21
Waning Gibbous
Sep 26
Last Quarter
Oct 4
New
Oct 11
First Quarter
Oct 18
Full

Hourly Weather History & Observations

Time (EDT) Temp. Dew Point Humidity Pressure Visibility Wind Dir Wind Speed Gust Speed Precip Events Conditions
12:15 AM 66.2 °F 64.4 °F 94% 29.81 in 3.0 mi South 3.5 mph - 0.01 in Rain Rain
12:36 AM 66.2 °F 64.4 °F 94% 29.81 in 2.5 mi SSW 5.8 mph - 0.02 in Rain Heavy Rain
12:56 AM 66.2 °F 64.4 °F 94% 29.81 in 3.0 mi SSW 6.9 mph - 0.02 in Rain Rain
1:15 AM 66.2 °F 64.4 °F 94% 29.79 in 5.0 mi Calm Calm - N/A Rain Light Rain
1:36 AM 64.4 °F 64.4 °F 100% 29.79 in 4.0 mi South 4.6 mph - 0.01 in Rain Rain
1:56 AM 64.4 °F 62.6 °F 94% 29.79 in 5.0 mi South 3.5 mph - 0.02 in Rain Light Rain
2:15 AM 64.4 °F 62.6 °F 94% 29.78 in 7.0 mi Calm Calm - 0.01 in   Drizzle
2:36 AM 64.4 °F 62.6 °F 94% 29.78 in 4.0 mi Calm Calm - 0.01 in Rain Rain
2:56 AM 64.4 °F 62.6 °F 94% 29.75 in 4.0 mi NW 6.9 mph - 0.02 in Rain Rain
3:15 AM 64.4 °F 62.6 °F 94% 29.76 in 5.0 mi WNW 5.8 mph - 0.01 in Rain Rain
3:36 AM 64.4 °F 62.6 °F 94% 29.75 in 2.5 mi NW 3.5 mph - 0.01 in Rain Heavy Rain
3:56 AM 62.6 °F 62.6 °F 100% 29.75 in 4.0 mi Calm Calm - 0.02 in Rain Rain
4:15 AM 64.4 °F 62.6 °F 94% 29.74 in 5.0 mi Calm Calm - 0.01 in Rain Rain
4:36 AM 64.4 °F 62.6 °F 94% 29.74 in 5.0 mi Calm Calm - 0.01 in Rain Rain
4:56 AM 64.4 °F 62.6 °F 94% 29.74 in 7.0 mi Calm Calm - 0.02 in Rain Rain
5:15 AM 62.6 °F 62.6 °F 100% 29.74 in 7.0 mi WNW 6.9 mph - 0.01 in   Drizzle
5:36 AM 62.6 °F 62.6 °F 100% 29.74 in 7.0 mi WNW 3.5 mph - 0.01 in Rain Heavy Rain
5:55 AM 62.6 °F 62.6 °F 100% 29.73 in 7.0 mi Calm Calm - 0.02 in Rain Light Rain
6:16 AM 62.6 °F 62.6 °F 100% 29.73 in 5.0 mi Calm Calm - N/A Rain Rain
6:36 AM 62.6 °F 62.6 °F 100% 29.73 in 5.0 mi Calm Calm - 0.01 in Rain Light Rain
6:55 AM 62.6 °F 62.6 °F 100% 29.73 in 5.0 mi West 3.5 mph - 0.01 in Rain Rain
7:16 AM 62.6 °F 60.8 °F 94% 29.73 in 5.0 mi NW 3.5 mph - 0.01 in Rain Light Rain
7:36 AM 62.6 °F 60.8 °F 94% 29.72 in 5.0 mi Calm Calm - 0.01 in Rain Rain
7:55 AM 62.6 °F 60.8 °F 94% 29.72 in 4.0 mi Calm Calm - 0.02 in Rain Light Rain
8:16 AM 62.6 °F 60.8 °F 94% 29.70 in 3.0 mi ESE 5.8 mph - N/A Rain Light Rain
8:36 AM 62.6 °F 60.8 °F 94% 29.71 in 3.0 mi Calm Calm - N/A Rain Light Rain
8:55 AM 62.6 °F 60.8 °F 94% 29.72 in 2.0 mi Calm Calm - 0.01 in Rain Rain
9:16 AM 60.8 °F 59.0 °F 94% 29.72 in 5.0 mi NW 9.2 mph 17.3 mph N/A Rain Light Rain
9:36 AM 59.0 °F 57.2 °F 94% 29.73 in 10.0 mi NNW 10.4 mph 17.3 mph 0.01 in   Light Drizzle
9:55 AM 59.0 °F 57.2 °F 94% 29.74 in 7.0 mi NW 10.4 mph 17.3 mph 0.01 in   Overcast
10:16 AM 59.0 °F 57.2 °F 94% 29.75 in 7.0 mi NW 8.1 mph - N/A   Overcast
10:36 AM 59.0 °F 57.2 °F 94% 29.74 in 7.0 mi NW 9.2 mph - N/A   Overcast
10:55 AM 59.0 °F 57.2 °F 94% 29.75 in 7.0 mi NW 3.5 mph - 0.01 in   Overcast
11:16 AM 60.8 °F 59.0 °F 94% 29.75 in 7.0 mi NW 8.1 mph - N/A   Overcast
11:36 AM 60.8 °F 59.0 °F 94% 29.76 in 7.0 mi NW 6.9 mph - N/A   Overcast
11:55 AM 60.8 °F 59.0 °F 94% 29.76 in 10.0 mi NW 10.4 mph 17.3 mph 0.01 in   Overcast
12:16 PM 60.8 °F 57.2 °F 88% 29.77 in 10.0 mi NW 9.2 mph - N/A   Mostly Cloudy
12:36 PM 62.6 °F 57.2 °F 82% 29.77 in 10.0 mi NW 9.2 mph - N/A   Mostly Cloudy
12:55 PM 64.4 °F 57.2 °F 77% 29.77 in 10.0 mi NNW 9.2 mph - N/A   Mostly Cloudy
1:16 PM 66.2 °F 55.4 °F 68% 29.77 in 10.0 mi NW 10.4 mph 17.3 mph 0.01 in   Mostly Cloudy
1:36 PM 66.2 °F 53.6 °F 64% 29.77 in 10.0 mi NW 8.1 mph 17.3 mph 0.01 in   Scattered Clouds
1:55 PM 69.8 °F 53.6 °F 56% 29.77 in 10.0 mi NW 9.2 mph 19.6 mph 0.02 in   Scattered Clouds
2:16 PM 68.0 °F 53.6 °F 60% 29.76 in 10.0 mi NW 8.1 mph 17.3 mph N/A   Scattered Clouds
2:36 PM 69.8 °F 51.8 °F 53% 29.76 in 10.0 mi NNW 6.9 mph - N/A   Scattered Clouds
2:55 PM 69.8 °F 51.8 °F 53% 29.76 in 10.0 mi North 8.1 mph - N/A   Scattered Clouds
3:16 PM 69.8 °F 53.6 °F 56% 29.77 in 10.0 mi NNW 11.5 mph 18.4 mph N/A   Mostly Cloudy
3:36 PM 71.6 °F 51.8 °F 50% 29.77 in 10.0 mi NW 9.2 mph 17.3 mph 0.01 in   Mostly Cloudy
3:55 PM 69.8 °F 51.8 °F 53% 29.77 in 10.0 mi NW 6.9 mph - 0.01 in   Scattered Clouds
4:16 PM 69.8 °F 51.8 °F 53% 29.77 in 10.0 mi NNW 9.2 mph - N/A   Mostly Cloudy
4:36 PM 71.6 °F 50.0 °F 46% 29.77 in 10.0 mi NW 10.4 mph - N/A   Mostly Cloudy
4:56 PM 69.8 °F 50.0 °F 49% 29.77 in 10.0 mi NW 11.5 mph 16.1 mph 0.01 in   Scattered Clouds
5:16 PM 69.8 °F 50.0 °F 49% 29.78 in 10.0 mi NW 6.9 mph - N/A   Scattered Clouds
5:35 PM 69.8 °F 46.4 °F 43% 29.77 in 10.0 mi NW 6.9 mph - N/A   Scattered Clouds
5:56 PM 68.0 °F 50.0 °F 52% 29.78 in 10.0 mi WNW 4.6 mph - N/A   Scattered Clouds
6:16 PM 68.0 °F 46.4 °F 46% 29.78 in 10.0 mi NW 8.1 mph - N/A   Scattered Clouds
6:36 PM 66.2 °F 46.4 °F 49% 29.78 in 10.0 mi NW 8.1 mph - N/A   Scattered Clouds
6:56 PM 64.4 °F 46.4 °F 52% 29.79 in 10.0 mi NW 8.1 mph - N/A   Clear
7:16 PM 62.6 °F 44.6 °F 52% 29.79 in 10.0 mi NW 5.8 mph - N/A   Clear
7:36 PM 60.8 °F 44.6 °F 55% 29.80 in 10.0 mi NW 5.8 mph - N/A   Clear
7:56 PM 60.8 °F 44.6 °F 55% 29.80 in 10.0 mi NW 5.8 mph - 0.01 in   Clear
8:16 PM 59.0 °F 44.6 °F 59% 29.80 in 10.0 mi NW 4.6 mph - N/A   Clear
8:36 PM 57.2 °F 44.6 °F 63% 29.81 in 10.0 mi NW 5.8 mph - N/A   Clear
8:56 PM 55.4 °F 46.4 °F 72% 29.82 in 10.0 mi NW 4.6 mph - N/A   Clear
9:16 PM 55.4 °F 46.4 °F 72% 29.83 in 10.0 mi NW 4.6 mph - N/A   Clear
9:36 PM 53.6 °F 46.4 °F 77% 29.83 in 10.0 mi WNW 4.6 mph - N/A   Clear
9:56 PM 51.8 °F 46.4 °F 82% 29.84 in 10.0 mi NW 5.8 mph - N/A   Clear
10:16 PM 53.6 °F 44.6 °F 72% 29.84 in 10.0 mi NW 5.8 mph - N/A   Clear
10:36 PM 53.6 °F 44.6 °F 72% 29.85 in 10.0 mi NW 5.8 mph - N/A   Clear
10:56 PM 53.6 °F 44.6 °F 72% 29.86 in 10.0 mi NW 5.8 mph - N/A   Clear
11:15 PM 53.6 °F 44.6 °F 72% 29.87 in 10.0 mi NW 5.8 mph - N/A   Clear
11:36 PM 51.8 °F 44.6 °F 76% 29.87 in 10.0 mi NW 6.9 mph - 0.01 in   Clear
11:56 PM 51.8 °F 44.6 °F 76% 29.88 in 10.0 mi NW 4.6 mph - 0.01 in   Clear